ANA1076 RJFF-RJTT

Flight info

Callsign ANA1076
Flight time 1h 26m
Altitude 37000
Route IPRIR Y231 OMKAT Y235 FLUTE Y23 ARTIC Y71 XAC
Aircraft B738/M-SDE2E3FGHIRWXY/LB1

Departure

Time 2026-02-20 09:59
Airport Fukuoka Airport (RJFF)

Arrival

Time 2026-02-20 11:26
Airport Tokyo Haneda International Airport (RJTT)
Time Latitude Longitude Altitude Speed Heading
2026-02-20 09:02 33.59578 130.44832 24 ft 0 kts 62°
2026-02-20 09:03 33.59581 130.44836 24 ft 0 kts 62°
2026-02-20 09:06 33.59581 130.44835 24 ft 0 kts 62°
2026-02-20 09:11 33.59580 130.44835 24 ft 0 kts 62°
2026-02-20 09:14 33.59580 130.44834 24 ft 0 kts 62°
2026-02-20 09:23 33.59580 130.44833 -3 ft 0 kts 62°
2026-02-20 09:34 33.59580 130.44832 -3 ft 0 kts 62°
2026-02-20 09:34 33.59579 130.44832 -3 ft 0 kts 62°
2026-02-20 09:47 33.59578 130.44830 24 ft 1 kts 62°
2026-02-20 09:47 33.59570 130.44812 28 ft 3 kts 62°
2026-02-20 09:48 33.59561 130.44791 27 ft 3 kts 62°
2026-02-20 09:48 33.59552 130.44771 27 ft 3 kts 80°
2026-02-20 09:48 33.59553 130.44750 28 ft 3 kts 118°
2026-02-20 09:48 33.59564 130.44732 29 ft 2 kts 147°
2026-02-20 09:49 33.59574 130.44725 29 ft 2 kts 151°
2026-02-20 09:49 33.59583 130.44719 28 ft 0 kts 150°
2026-02-20 09:52 33.59578 130.44723 30 ft 2 kts 151°
2026-02-20 09:52 33.59550 130.44741 28 ft 7 kts 150°
2026-02-20 09:52 33.59513 130.44765 27 ft 12 kts 151°
2026-02-20 09:53 33.59426 130.44824 26 ft 17 kts 150°
2026-02-20 09:53 33.59271 130.44852 27 ft 17 kts 178°
2026-02-20 09:53 33.59197 130.44882 24 ft 17 kts 151°
2026-02-20 09:53 33.59091 130.44955 27 ft 17 kts 150°
2026-02-20 09:54 33.58987 130.45026 29 ft 17 kts 150°
2026-02-20 09:54 33.58887 130.45094 30 ft 16 kts 151°
2026-02-20 09:54 33.58790 130.45160 31 ft 16 kts 150°
2026-02-20 09:54 33.58697 130.45224 34 ft 15 kts 150°
2026-02-20 09:55 33.58601 130.45291 32 ft 17 kts 149°
2026-02-20 09:55 33.58499 130.45361 33 ft 17 kts 150°
2026-02-20 09:55 33.58395 130.45429 33 ft 18 kts 149°
2026-02-20 09:55 33.58285 130.45507 32 ft 19 kts 149°
2026-02-20 09:56 33.58174 130.45583 36 ft 18 kts 150°
2026-02-20 09:56 33.58066 130.45655 35 ft 18 kts 150°
2026-02-20 09:56 33.57963 130.45726 40 ft 17 kts 150°
2026-02-20 09:56 33.57861 130.45796 43 ft 16 kts 150°
2026-02-20 09:57 33.57761 130.45865 44 ft 16 kts 150°
2026-02-20 09:57 33.57663 130.45931 44 ft 16 kts 150°
2026-02-20 09:57 33.57563 130.45929 43 ft 17 kts 231°
2026-02-20 09:57 33.57538 130.45797 44 ft 16 kts 287°
2026-02-20 09:58 33.57593 130.45749 43 ft 2 kts 330°
2026-02-20 09:58 33.57599 130.45745 43 ft 2 kts 330°
2026-02-20 09:58 33.57616 130.45733 43 ft 4 kts 329°
2026-02-20 09:58 33.57658 130.45706 42 ft 10 kts 329°
2026-02-20 09:59 33.57824 130.45591 41 ft 61 kts 330°
2026-02-20 09:59 33.58411 130.45191 34 ft 130 kts 330°
2026-02-20 09:59 33.59311 130.44557 302 ft 159 kts 328°
2026-02-20 09:59 33.60228 130.43905 1188 ft 151 kts 328°
2026-02-20 10:00 33.61190 130.43256 1783 ft 163 kts 327°
2026-02-20 10:00 33.62226 130.42530 2317 ft 185 kts 327°
2026-02-20 10:00 33.63427 130.41689 2595 ft 214 kts 328°
2026-02-20 10:00 33.64905 130.40980 2728 ft 243 kts 354°
2026-02-20 10:01 33.66517 130.41476 3297 ft 252 kts 34°
2026-02-20 10:01 33.67700 130.43075 3657 ft 272 kts 63°
2026-02-20 10:01 33.68495 130.45234 4207 ft 284 kts 73°
2026-02-20 10:01 33.68770 130.47488 5325 ft 275 kts 95°
2026-02-20 10:02 33.68331 130.49706 6182 ft 276 kts 119°
2026-02-20 10:02 33.67175 130.51536 6968 ft 276 kts 143°
2026-02-20 10:02 33.65568 130.52790 7785 ft 278 kts 152°
2026-02-20 10:02 33.63860 130.53909 8571 ft 283 kts 156°
2026-02-20 10:03 33.62042 130.54862 9375 ft 287 kts 159°
2026-02-20 10:03 33.60176 130.55765 10163 ft 292 kts 159°
2026-02-20 10:03 33.58224 130.56706 10475 ft 314 kts 159°
2026-02-20 10:03 33.56130 130.57729 10672 ft 338 kts 159°
2026-02-20 10:04 33.53892 130.58837 11061 ft 353 kts 159°
2026-02-20 10:04 33.51602 130.59982 11680 ft 360 kts 159°
2026-02-20 10:04 33.49271 130.61153 12362 ft 367 kts 159°
2026-02-20 10:04 33.46893 130.62347 13054 ft 373 kts 159°
2026-02-20 10:05 33.44506 130.63651 13731 ft 383 kts 150°
2026-02-20 10:05 33.42485 130.65771 14379 ft 390 kts 130°
2026-02-20 10:05 33.40778 130.68294 15156 ft 393 kts 128°
2026-02-20 10:05 33.39070 130.70875 15890 ft 397 kts 128°
2026-02-20 10:06 33.37329 130.73471 16599 ft 402 kts 129°
2026-02-20 10:06 33.35550 130.76078 17301 ft 407 kts 130°
2026-02-20 10:06 33.33759 130.78715 18009 ft 411 kts 126°
2026-02-20 10:06 33.32427 130.81747 18642 ft 416 kts 107°
2026-02-20 10:07 33.31783 130.85123 19282 ft 417 kts 95°
2026-02-20 10:07 33.31690 130.88581 19864 ft 418 kts 82°
2026-02-20 10:07 33.32275 130.91974 20421 ft 417 kts 68°
2026-02-20 10:07 33.33239 130.95214 21010 ft 420 kts 66°
2026-02-20 10:08 33.34250 130.98513 21567 ft 425 kts 66°
2026-02-20 10:08 33.35234 131.01869 22115 ft 430 kts 68°
2026-02-20 10:08 33.36138 131.05316 22684 ft 436 kts 70°
2026-02-20 10:08 33.36959 131.08812 23222 ft 440 kts 71°
2026-02-20 10:09 33.37786 131.12352 23751 ft 444 kts 71°
2026-02-20 10:09 33.38630 131.15935 24159 ft 449 kts 72°
2026-02-20 10:09 33.39318 131.19602 24596 ft 454 kts 76°
2026-02-20 10:09 33.39872 131.23341 25039 ft 458 kts 78°
2026-02-20 10:10 33.40381 131.27111 25464 ft 462 kts 78°
2026-02-20 10:10 33.40894 131.30927 25821 ft 467 kts 78°
2026-02-20 10:10 33.41430 131.34778 26212 ft 470 kts 78°
2026-02-20 10:10 33.41987 131.38659 26622 ft 474 kts 78°
2026-02-20 10:11 33.42561 131.42567 27006 ft 477 kts 77°
2026-02-20 10:11 33.43142 131.46488 27362 ft 481 kts 77°
2026-02-20 10:11 33.43731 131.50453 27732 ft 485 kts 77°
2026-02-20 10:11 33.44323 131.54444 28106 ft 488 kts 77°
2026-02-20 10:12 33.44907 131.58404 28434 ft 492 kts 77°
2026-02-20 10:12 33.45501 131.62451 28744 ft 496 kts 78°
2026-02-20 10:12 33.46100 131.66538 29087 ft 499 kts 78°
2026-02-20 10:12 33.46698 131.70633 29428 ft 502 kts 78°
2026-02-20 10:13 33.47301 131.74766 29734 ft 505 kts 78°
2026-02-20 10:13 33.47903 131.78920 30013 ft 509 kts 78°
2026-02-20 10:13 33.48507 131.83113 30295 ft 512 kts 78°
2026-02-20 10:13 33.49113 131.87332 30541 ft 515 kts 78°
2026-02-20 10:14 33.49719 131.91565 30798 ft 517 kts 78°
2026-02-20 10:14 33.50326 131.95814 31084 ft 519 kts 78°
2026-02-20 10:14 33.50936 132.00090 31371 ft 520 kts 78°
2026-02-20 10:14 33.51546 132.04379 31634 ft 522 kts 78°
2026-02-20 10:15 33.52155 132.08666 31888 ft 524 kts 78°
2026-02-20 10:15 33.52767 132.12986 32136 ft 527 kts 78°
2026-02-20 10:15 33.53379 132.17317 32410 ft 528 kts 78°
2026-02-20 10:15 33.53992 132.21671 32706 ft 529 kts 78°
2026-02-20 10:16 33.54606 132.26034 32966 ft 531 kts 78°
2026-02-20 10:16 33.55249 132.30399 33203 ft 533 kts 75°
2026-02-20 10:16 33.56241 132.34679 33459 ft 531 kts 68°
2026-02-20 10:16 33.57473 132.38853 33772 ft 531 kts 66°
2026-02-20 10:17 33.58756 132.42997 34035 ft 532 kts 65°
2026-02-20 10:17 33.60038 132.47107 34242 ft 534 kts 66°
2026-02-20 10:17 33.61328 132.51286 34496 ft 535 kts 66°
2026-02-20 10:17 33.62602 132.55489 34789 ft 535 kts 66°
2026-02-20 10:18 33.63859 132.59696 35053 ft 536 kts 66°
2026-02-20 10:18 33.65106 132.63907 35273 ft 538 kts 66°
2026-02-20 10:18 33.65950 132.66771 35421 ft 538 kts 67°
2026-02-20 10:18 33.66355 132.68145 35525 ft 538 kts 67°
2026-02-20 10:19 33.68848 132.76623 35941 ft 541 kts 66°
2026-02-20 10:19 33.70103 132.80889 36156 ft 542 kts 67°
2026-02-20 10:19 33.71359 132.85164 36420 ft 542 kts 66°
2026-02-20 10:19 33.72612 132.89434 36696 ft 542 kts 67°
2026-02-20 10:20 33.73867 132.93716 36908 ft 544 kts 67°
2026-02-20 10:20 33.75125 132.98013 37094 ft 545 kts 67°
2026-02-20 10:20 33.76384 133.02322 37327 ft 546 kts 67°
2026-02-20 10:20 33.77640 133.06627 37558 ft 547 kts 67°
2026-02-20 10:21 33.78900 133.10948 37782 ft 548 kts 67°
2026-02-20 10:21 33.80153 133.15273 37943 ft 548 kts 67°
2026-02-20 10:21 33.81401 133.19604 38156 ft 549 kts 67°
2026-02-20 10:21 33.82648 133.23947 38422 ft 548 kts 67°
2026-02-20 10:22 33.83891 133.28283 38675 ft 548 kts 67°
2026-02-20 10:22 33.85136 133.32628 38843 ft 549 kts 67°
2026-02-20 10:22 33.86378 133.36969 38995 ft 549 kts 67°
2026-02-20 10:22 33.87604 133.41259 39124 ft 548 kts 67°
2026-02-20 10:23 33.88860 133.45654 39134 ft 549 kts 67°
2026-02-20 10:23 33.91334 133.54287 39152 ft 551 kts 67°
2026-02-20 10:24 33.93833 133.63016 39152 ft 552 kts 67°
2026-02-20 10:24 33.96330 133.71779 39153 ft 553 kts 67°
2026-02-20 10:25 33.98831 133.80563 39136 ft 554 kts 67°
2026-02-20 10:25 34.01337 133.89339 39109 ft 554 kts 67°
2026-02-20 10:26 34.03795 133.98126 39120 ft 553 kts 72°
2026-02-20 10:26 34.05523 134.07164 39119 ft 554 kts 76°
2026-02-20 10:27 34.07110 134.16259 39120 ft 554 kts 75°
2026-02-20 10:27 34.08760 134.25341 39137 ft 553 kts 75°
2026-02-20 10:28 34.10420 134.34395 39139 ft 553 kts 75°
2026-02-20 10:28 34.12053 134.43449 39130 ft 552 kts 75°
2026-02-20 10:29 34.13676 134.52509 39132 ft 552 kts 75°
2026-02-20 10:29 34.15247 134.61309 39139 ft 552 kts 75°
2026-02-20 10:30 34.16850 134.70318 39130 ft 552 kts 75°
2026-02-20 10:30 34.18413 134.79141 39135 ft 553 kts 75°
2026-02-20 10:31 34.20016 134.88231 39148 ft 553 kts 75°
2026-02-20 10:31 34.21613 134.97323 39154 ft 553 kts 75°
2026-02-20 10:32 34.23183 135.06417 39143 ft 550 kts 76°
2026-02-20 10:32 34.24702 135.15393 39121 ft 542 kts 76°
2026-02-20 10:33 34.26208 135.24316 39134 ft 541 kts 76°
2026-02-20 10:33 34.27707 135.33219 39133 ft 541 kts 76°
2026-02-20 10:34 34.29205 135.42139 39133 ft 541 kts 77°
2026-02-20 10:34 34.30686 135.51010 39136 ft 542 kts 77°
2026-02-20 10:35 34.32171 135.59944 39143 ft 543 kts 77°
2026-02-20 10:35 34.33654 135.68914 39148 ft 544 kts 77°
2026-02-20 10:36 34.35136 135.77915 39152 ft 546 kts 77°
2026-02-20 10:36 34.36616 135.86948 39156 ft 548 kts 77°
2026-02-20 10:37 34.38090 135.95994 39153 ft 549 kts 77°
2026-02-20 10:37 34.39562 136.05069 39156 ft 550 kts 77°
2026-02-20 10:38 34.41030 136.14162 39149 ft 550 kts 77°
2026-02-20 10:38 34.42472 136.23187 39141 ft 549 kts 77°
2026-02-20 10:39 34.43915 136.32281 39144 ft 548 kts 78°
2026-02-20 10:39 34.45346 136.41335 39141 ft 547 kts 78°
2026-02-20 10:40 34.46740 136.50193 39142 ft 546 kts 78°
2026-02-20 10:40 34.48157 136.59238 39129 ft 547 kts 78°
2026-02-20 10:41 34.49567 136.68292 39124 ft 546 kts 78°
2026-02-20 10:41 34.50734 136.75815 39127 ft 546 kts 78°
2026-02-20 10:42 34.52131 136.84867 39124 ft 547 kts 78°
2026-02-20 10:42 34.53524 136.93941 39125 ft 547 kts 79°
2026-02-20 10:43 34.54141 137.04679 39132 ft 553 kts 90°
2026-02-20 10:43 34.54093 137.18809 39132 ft 564 kts 90°
2026-02-20 10:44 34.54117 137.26746 39129 ft 566 kts 89°
2026-02-20 10:44 34.54182 137.36377 39118 ft 569 kts 89°
2026-02-20 10:45 34.54241 137.45918 39115 ft 569 kts 90°
2026-02-20 10:45 34.54285 137.55509 39114 ft 569 kts 90°
2026-02-20 10:46 34.54315 137.65101 39115 ft 567 kts 90°
2026-02-20 10:46 34.54320 137.74640 39115 ft 565 kts 90°
2026-02-20 10:47 34.54319 137.84174 39119 ft 563 kts 90°
2026-02-20 10:47 34.54313 137.93665 39118 ft 562 kts 90°
2026-02-20 10:48 34.54301 138.03129 39116 ft 560 kts 90°
2026-02-20 10:48 34.54283 138.12559 39114 ft 559 kts 90°
2026-02-20 10:49 34.54259 138.21987 39112 ft 559 kts 90°
2026-02-20 10:49 34.54243 138.31414 39117 ft 559 kts 87°
2026-02-20 10:50 34.55463 138.40664 39135 ft 553 kts 69°
2026-02-20 10:50 34.58434 138.49157 39147 ft 544 kts 56°
2026-02-20 10:51 34.60204 138.53231 38981 ft 548 kts 55°
2026-02-20 10:51 34.61972 138.57295 38421 ft 554 kts 56°
2026-02-20 10:51 34.63741 138.61455 37806 ft 553 kts 56°
2026-02-20 10:51 34.65473 138.65619 37237 ft 551 kts 57°
2026-02-20 10:52 34.67184 138.69778 36655 ft 549 kts 56°
2026-02-20 10:52 34.68891 138.73935 36070 ft 548 kts 58°
2026-02-20 10:52 34.70320 138.78251 35429 ft 556 kts 67°
2026-02-20 10:52 34.71273 138.82822 34814 ft 561 kts 76°
2026-02-20 10:53 34.71741 138.87530 34256 ft 562 kts 86°
2026-02-20 10:53 34.71690 138.92286 33510 ft 562 kts 91°
2026-02-20 10:53 34.71543 138.97036 32728 ft 561 kts 90°
2026-02-20 10:53 34.71463 139.01642 32022 ft 557 kts 89°
2026-02-20 10:54 34.71426 139.06292 31585 ft 547 kts 89°
2026-02-20 10:54 34.71407 139.10868 30745 ft 547 kts 89°
2026-02-20 10:54 34.71391 139.15482 29874 ft 545 kts 89°
2026-02-20 10:54 34.71373 139.19371 29007 ft 543 kts 89°
2026-02-20 10:55 34.71344 139.23980 28226 ft 536 kts 89°
2026-02-20 10:55 34.71310 139.28475 27570 ft 528 kts 89°
2026-02-20 10:55 34.71273 139.32904 26931 ft 520 kts 89°
2026-02-20 10:55 34.71236 139.37244 26638 ft 506 kts 89°
2026-02-20 10:56 34.71198 139.41454 26365 ft 492 kts 89°
2026-02-20 10:56 34.71226 139.45589 26086 ft 487 kts 87°
2026-02-20 10:56 34.71347 139.49731 25713 ft 493 kts 86°
2026-02-20 10:56 34.71504 139.53889 25065 ft 489 kts 85°
2026-02-20 10:57 34.71662 139.57985 24465 ft 484 kts 85°
2026-02-20 10:57 34.71809 139.62052 23849 ft 479 kts 86°
2026-02-20 10:57 34.71942 139.66086 23117 ft 476 kts 86°
2026-02-20 10:57 34.72064 139.70093 22436 ft 471 kts 86°
2026-02-20 10:58 34.72178 139.74051 21783 ft 466 kts 86°
2026-02-20 10:58 34.72287 139.77967 21167 ft 461 kts 86°
2026-02-20 10:58 34.72394 139.81842 20547 ft 456 kts 86°
2026-02-20 10:58 34.72500 139.85686 19939 ft 452 kts 86°
2026-02-20 10:59 34.72604 139.89483 19340 ft 448 kts 85°
2026-02-20 10:59 34.72706 139.93266 18739 ft 445 kts 85°
2026-02-20 10:59 34.72807 139.97013 18077 ft 442 kts 85°
2026-02-20 10:59 34.72906 140.00737 17426 ft 438 kts 85°
2026-02-20 11:00 34.73002 140.04377 16818 ft 434 kts 85°
2026-02-20 11:00 34.73098 140.08068 16218 ft 429 kts 85°
2026-02-20 11:00 34.73244 140.11619 15646 ft 423 kts 80°
2026-02-20 11:00 34.73820 140.15084 15087 ft 414 kts 69°
2026-02-20 11:01 34.74799 140.18335 14530 ft 404 kts 59°
2026-02-20 11:01 34.76134 140.21295 14002 ft 396 kts 54°
2026-02-20 11:01 34.77517 140.24177 13418 ft 391 kts 52°
2026-02-20 11:01 34.79243 140.26611 12899 ft 372 kts 32°
2026-02-20 11:02 34.81426 140.28124 12430 ft 353 kts 14°
2026-02-20 11:02 34.83773 140.28731 11822 ft 341 kts 358°
2026-02-20 11:02 34.86109 140.28581 11246 ft 333 kts 346°
2026-02-20 11:02 34.88279 140.27779 10929 ft 317 kts 332°
2026-02-20 11:03 34.90193 140.26567 10714 ft 304 kts 327°
2026-02-20 11:03 34.91974 140.25275 10572 ft 292 kts 326°
2026-02-20 11:03 34.93672 140.24007 10456 ft 281 kts 325°
2026-02-20 11:03 34.95309 140.22784 10319 ft 270 kts 326°
2026-02-20 11:04 34.96884 140.21615 10205 ft 261 kts 326°
2026-02-20 11:04 34.98414 140.20486 10108 ft 254 kts 326°
2026-02-20 11:04 34.99888 140.19404 9958 ft 248 kts 326°
2026-02-20 11:04 35.01364 140.18323 9680 ft 245 kts 326°
2026-02-20 11:05 35.02842 140.17243 9378 ft 244 kts 326°
2026-02-20 11:05 35.04289 140.16187 9093 ft 242 kts 326°
2026-02-20 11:05 35.05734 140.15134 8809 ft 241 kts 326°
2026-02-20 11:05 35.07148 140.14103 8535 ft 240 kts 326°
2026-02-20 11:06 35.08562 140.13073 8261 ft 239 kts 326°
2026-02-20 11:06 35.09985 140.12037 7985 ft 238 kts 326°
2026-02-20 11:06 35.11404 140.11003 7707 ft 237 kts 326°
2026-02-20 11:06 35.11885 140.10652 7614 ft 237 kts 326°
2026-02-20 11:07 35.12524 140.10186 7490 ft 237 kts 326°
2026-02-20 11:07 35.13914 140.09173 7218 ft 241 kts 326°
2026-02-20 11:07 35.15380 140.08103 6946 ft 249 kts 326°
2026-02-20 11:08 35.16897 140.06995 6627 ft 256 kts 326°
2026-02-20 11:08 35.18425 140.05881 6318 ft 256 kts 327°
2026-02-20 11:08 35.19954 140.04765 5997 ft 256 kts 327°
2026-02-20 11:08 35.21487 140.03646 5683 ft 256 kts 327°
2026-02-20 11:09 35.23013 140.02532 5380 ft 255 kts 328°
2026-02-20 11:09 35.24518 140.01432 5075 ft 255 kts 328°
2026-02-20 11:09 35.25930 140.00401 4792 ft 255 kts 328°
2026-02-20 11:09 35.27484 139.99267 4487 ft 254 kts 328°
2026-02-20 11:10 35.29005 139.98172 4201 ft 252 kts 329°
2026-02-20 11:10 35.30481 139.97123 4109 ft 238 kts 329°
2026-02-20 11:10 35.31865 139.96144 4021 ft 222 kts 329°
2026-02-20 11:10 35.33154 139.95233 3997 ft 204 kts 329°
2026-02-20 11:11 35.34336 139.94396 4012 ft 191 kts 329°
2026-02-20 11:11 35.35474 139.93591 4026 ft 185 kts 329°
2026-02-20 11:11 35.36560 139.92823 4002 ft 175 kts 329°
2026-02-20 11:11 35.37610 139.92079 3783 ft 173 kts 329°
2026-02-20 11:12 35.38643 139.91349 3584 ft 169 kts 329°
2026-02-20 11:12 35.39656 139.90632 3344 ft 168 kts 329°
2026-02-20 11:12 35.40665 139.89919 3125 ft 166 kts 330°
2026-02-20 11:12 35.41659 139.89217 2898 ft 164 kts 330°
2026-02-20 11:13 35.42643 139.88521 2691 ft 163 kts 330°
2026-02-20 11:13 35.43617 139.87832 2489 ft 159 kts 330°
2026-02-20 11:13 35.44561 139.87164 2270 ft 151 kts 330°
2026-02-20 11:13 35.45417 139.86560 2071 ft 138 kts 330°
2026-02-20 11:14 35.46210 139.85999 1903 ft 126 kts 330°
2026-02-20 11:14 35.46955 139.85472 1772 ft 124 kts 330°
2026-02-20 11:14 35.47693 139.84951 1588 ft 124 kts 330°
2026-02-20 11:14 35.48441 139.84422 1424 ft 124 kts 330°
2026-02-20 11:15 35.49188 139.83894 1258 ft 124 kts 330°
2026-02-20 11:15 35.49931 139.83369 1098 ft 122 kts 330°
2026-02-20 11:15 35.50667 139.82849 952 ft 122 kts 330°
2026-02-20 11:15 35.51407 139.82316 755 ft 124 kts 330°
2026-02-20 11:16 35.52164 139.81771 496 ft 126 kts 331°
2026-02-20 11:16 35.52936 139.81222 338 ft 131 kts 330°
2026-02-20 11:16 35.53733 139.80653 197 ft 133 kts 332°
2026-02-20 11:16 35.54523 139.80126 49 ft 124 kts 335°
2026-02-20 11:17 35.55275 139.79619 212 ft 137 kts 332°
2026-02-20 11:17 35.56190 139.79051 915 ft 159 kts 336°
2026-02-20 11:17 35.57397 139.78467 1340 ft 216 kts 339°
2026-02-20 11:17 35.58870 139.77549 1852 ft 259 kts 326°
2026-02-20 11:18 35.60618 139.76593 2314 ft 300 kts 349°
2026-02-20 11:18 35.62885 139.76687 2359 ft 350 kts 11°
2026-02-20 11:18 35.65094 139.77332 3510 ft 304 kts 13°
2026-02-20 11:18 35.67042 139.77929 3929 ft 274 kts 17°
2026-02-20 11:19 35.68621 139.79136 4025 ft 271 kts 50°
2026-02-20 11:19 35.69419 139.81158 4050 ft 269 kts 79°
2026-02-20 11:19 35.69448 139.83423 4040 ft 264 kts 102°
2026-02-20 11:19 35.68788 139.85463 4038 ft 259 kts 125°
2026-02-20 11:20 35.67517 139.87016 4038 ft 253 kts 148°
2026-02-20 11:20 35.65928 139.87856 4030 ft 248 kts 169°
2026-02-20 11:20 35.64217 139.88084 4050 ft 247 kts 178°
2026-02-20 11:20 35.62498 139.88154 4039 ft 248 kts 179°
2026-02-20 11:21 35.60791 139.88206 4024 ft 238 kts 180°
2026-02-20 11:21 35.59191 139.88259 4004 ft 225 kts 179°
2026-02-20 11:21 35.57657 139.88316 3972 ft 215 kts 179°
2026-02-20 11:21 35.56171 139.88377 3760 ft 212 kts 179°
2026-02-20 11:22 35.54661 139.88442 3267 ft 223 kts 179°
2026-02-20 11:22 35.53090 139.88513 2951 ft 225 kts 178°
2026-02-20 11:22 35.51538 139.88585 2774 ft 222 kts 179°
2026-02-20 11:22 35.50003 139.88656 2472 ft 223 kts 179°
2026-02-20 11:23 35.48421 139.88704 2040 ft 231 kts 185°
2026-02-20 11:23 35.46953 139.87959 1630 ft 232 kts 226°
2026-02-20 11:23 35.46276 139.86285 1548 ft 216 kts 268°
2026-02-20 11:23 35.46664 139.84637 1547 ft 196 kts 311°
2026-02-20 11:24 35.47782 139.83907 1506 ft 180 kts 356°
2026-02-20 11:24 35.48984 139.84207 1301 ft 177 kts 11°
2026-02-20 11:24 35.50128 139.83967 1087 ft 168 kts 321°
2026-02-20 11:24 35.50673 139.82778 930 ft 158 kts 287°
2026-02-20 11:25 35.51214 139.81673 683 ft 148 kts 330°
2026-02-20 11:25 35.52177 139.81335 547 ft 140 kts 351°
2026-02-20 11:25 35.53136 139.81095 303 ft 144 kts 339°
2026-02-20 11:25 35.53989 139.80486 139 ft 136 kts 330°
2026-02-20 11:26 35.54748 139.79962 47 ft 114 kts 332°
2026-02-20 11:26 35.55367 139.79523 27 ft 83 kts 330°
2026-02-20 11:26 35.55706 139.79279 26 ft 33 kts 329°
2026-02-20 11:26 35.55872 139.79164 26 ft 28 kts 330°
2026-02-20 11:27 35.56034 139.79032 28 ft 28 kts 316°
2026-02-20 11:27 35.56138 139.78852 22 ft 18 kts 292°
2026-02-20 11:27 35.56110 139.78760 23 ft 9 kts 204°
2026-02-20 11:27 35.56050 139.78778 27 ft 10 kts 146°
2026-02-20 11:28 35.55978 139.78834 25 ft 14 kts 148°
2026-02-20 11:28 35.55882 139.78902 23 ft 18 kts 152°
2026-02-20 11:28 35.55764 139.78981 27 ft 20 kts 147°
2026-02-20 11:28 35.55639 139.79077 25 ft 22 kts 150°
2026-02-20 11:29 35.55548 139.79141 28 ft 23 kts 150°
2026-02-20 11:29 35.55462 139.79117 26 ft 10 kts 240°
2026-02-20 11:29 35.55445 139.79033 30 ft 11 kts 251°
2026-02-20 11:29 35.55401 139.78947 26 ft 13 kts 232°
2026-02-20 11:30 35.55366 139.78929 27 ft 6 kts 176°
2026-02-20 11:30 35.55337 139.78940 27 ft 8 kts 157°
2026-02-20 11:30 35.55283 139.78949 32 ft 5 kts 218°
2026-02-20 11:30 35.55276 139.78926 31 ft 4 kts 268°
2026-02-20 11:31 35.55274 139.78890 26 ft 3 kts 251°
2026-02-20 11:31 35.55269 139.78878 27 ft 1 kts 239°
2026-02-20 11:31 35.55266 139.78872 27 ft 1 kts 240°
2026-02-20 11:31 35.55264 139.78867 27 ft 0 kts 240°
2026-02-20 11:32 35.55263 139.78866 27 ft 0 kts 240°
2026-02-20 11:34 35.55263 139.78867 27 ft 0 kts 240°